Location: Berlise
(49.6641°N, 4.1077°E)
Time: 01:25:47
(UTC+00:00)

Meteor PRIRODA - Pass Details

Date: 27 January 2021
Orbit: 490 x 509 km, 97.6° (Epoch: 28 February)

Event Time Altitude Azimuth Distance (km) Brightness Sun altitude
Rises 05:26:33 0° 11° (N) 2,581 7.3 -18.7°
Reaches altitude 10° 05:28:39 10° 9° (N) 1,694 6.3 -18.3°
Maximum altitude 05:32:16 72° 286° (WNW) 523 3.4 -17.8°
Drops below altitude 10° 05:35:52 10° 202° (SSW) 1,682 6.2 -17.2°
Sets 05:37:56 0° 200° (SSW) 2,560 7.1 -16.8°
